Vorticity
19 5 5 8 7 5 5 6 7 7 7 7 8 9 5 3 2 1 5 1 6 7 8 6 5 5 5 6 6 6 5 6 6 7 6 8 8 8 7 8 7 7 7
5 12 5 6 6 7 6 6 7 7 8 8 9 10 7 1 6 3 2 5 7 8 6 5 6 6 5 6 7 7 7 8 8 7 7 7 7 7 6 6 7 6 6
7 11 4 6 5 6 6 6 7 8 9 11 9 11 6 4 -0 4 1 7 8 6 5 5 5 6 8 8 7 7 7 5 5 4 4 4 5 5 4 4 4 5 5
2 9 4 7 5 7 6 6 7 8 12 13 9 7 7 3 5 -0 7 9 5 5 6 7 8 7 7 6 5 4 4 4 4 4 4 4 5 5 5 5 5 5 5
7 7 5 6 8 6 6 7 7 12 13 4 7 6 3 5 1 6 11 5 4 5 6 7 7 6 5 4 4 4 4 4 4 4 4 4 4 5 5 5 5 5 5
9 4 5 6 8 5 6 7 8 10 5 4 5 6 4 2 3 12 6 4 5 7 7 6 5 5 4 4 4 3 3 4 4 4 4 4 4 4 4 4 5 5 5
10 5 5 7 7 6 7 7 8 9 8 4 6 4 2 3 12 6 4 5 6 7 6 5 4 3 3 3 3 3 3 3 4 4 4 4 4 4 4 3 3 4 5
8 6 5 6 8 6 7 7 8 10 3 2 1 1 -3 10 8 5 5 6 6 6 5 3 3 3 2 3 3 3 3 3 3 4 5 4 4 4 4 3 4 4 4
11 5 7 5 9 6 7 7 7 9 4 0 3 3 9 10 5 5 7 6 5 5 3 2 2 2 2 3 3 3 4 4 4 4 5 4 3 3 3 3 3 3 3
4 4 6 5 7 6 7 7 7 7 7 7 8 9 11 6 5 7 6 6 5 4 3 2 2 2 3 3 3 4 4 4 4 4 5 5 4 3 3 3 4 4 4
6 4 6 3 6 7 6 7 7 8 9 10 11 9 7 5 7 6 5 4 2 1 1 2 2 3 3 4 5 5 5 5 5 5 6 6 4 4 4 4 4 4 4
15 7 5 2 9 7 5 11 7 7 7 7 6 6 6 7 6 4 2 2 3 3 2 2 3 4 5 5 6 6 7 7 7 7 7 6 6 5 5 4 4 4 4
41 8 3 6 9 8 4 10 6 5 5 5 5 6 7 5 3 3 4 3 1 1 1 2 2 4 5 6 6 6 6 6 6 6 6 5 5 5 5 5 5 4 6
27 2 14 7 10 9 5 9 5 6 6 6 7 6 4 4 4 1 -0 -1 -0 0 1 2 3 4 4 5 5 5 5 6 6 6 7 6 6 5 5 4 6 5 5
26 0 -0 9 12 9 6 5 7 6 6 7 5 4 3 2 -0 -1 -1 -1 0 1 2 2 3 4 4 4 5 5 5 6 6 6 6 6 5 5 5 6 5 6 6
1 20 8 11 14 11 9 8 7 7 7 5 3 1 1 -1 -0 0 0 1 1 2 3 4 4 4 4 3 3 4 5 5 4 5 6 5 6 6 7 6 6 6 6
69 -9 35 6 20 18 13 7 8 11 7 4 2 1 -1 -1 -0 1 1 1 2 2 2 4 4 5 5 3 3 3 4 4 5 5 6 6 6 6 5 5 5 5 7
6 4 9 -5 2 7 10 15 11 12 7 5 1 0 1 2 1 2 1 2 2 2 2 4 4 4 6 4 3 2 3 5 5 6 7 7 6 6 5 5 6 6 7
56 25 13 -11 -3 1 4 -0 2 13 10 8 4 1 1 1 2 3 3 2 3 4 4 4 5 4 6 6 3 2 2 5 6 8 5 6 6 6 6 7 8 9 9
7 26 14 20 -14 2 -6 2 3 -1 8 11 8 3 4 2 1 1 3 7 3 4 5 6 7 6 6 6 5 3 2 7 7 6 5 7 4 4 4 5 7 8 9
7 30 -4 19 -6 -6 -3 -3 -2 8 -4 2 15 10 8 6 2 2 -4 5 5 6 7 2 6 7 8 8 7 7 6 7 6 6 4 -0 1 1 2 3 4 6 7
4 25 22 25 48 -7 -3 14 17 48 20 -5 -6 0 5 -4 4 4 -5 10 1 5 17 12 12 12 11 10 11 10 9 9 6 1 -1 3 6 9 11 11 11 10 8
-2 4 14 -3 -13 5 -9 -4 7 5 14 11 5 18 -9 12 3 10 -8 -1 1 -7 5 10 14 17 14 11 9 8 12 2 6 -5 -13 3 2 1 5 8 9 8 9
18 -1 -5 3 -22 5 -10 -5 -1 13 -1 7 28 27 -18 -45 7 -16 5 11 60 34 34 38 7 47 29 6 -4 9 1 -3 -5 -15 26 -7 2 4 5 7 8 9 8
10 32 10 61 -3 19 -11 8 19 27 8 12 -14 -9 4 13 72 21 15 6 8 22 2 8 12 1 43 4 9 -10 13 41 39 14 1 4 7 10 6 10 11 9 10
12 4 0 2 9 0 21 28 2 2 -18 13 13 11 -1 26 -1 3 3 2 9 2 8 1 6 8 15 -11 13 21 4 10 6 4 3 5 14 12 9 7 10 9 8
Height
3148 3149 3151 3152 3152 3154 3155 3156 3158 3159 3159 3161 3162 3165 3167 3168 3170 3171 3172 3173 3173 3174 3174 3174 3175 3175 3174 3174 3174 3174 3174 3173 3173 3173 3173 3173 3172 3171 3170 3170 3170 3169 3168
3147 3148 3149 3150 3151 3152 3154 3154 3156 3158 3159 3160 3162 3164 3166 3168 3170 3171 3172 3173 3174 3174 3175 3175 3175 3175 3175 3175 3175 3175 3175 3175 3175 3174 3174 3174 3174 3173 3172 3172 3171 3171 3169
3146 3146 3147 3148 3150 3151 3153 3153 3154 3156 3158 3160 3161 3164 3166 3169 3170 3172 3172 3173 3174 3175 3175 3175 3175 3176 3176 3176 3176 3176 3176 3177 3176 3176 3176 3176 3175 3174 3174 3173 3173 3172 3171
3143 3144 3145 3146 3148 3150 3151 3153 3154 3155 3157 3159 3161 3164 3166 3168 3170 3171 3172 3173 3174 3175 3175 3176 3176 3177 3177 3177 3177 3177 3178 3178 3178 3178 3177 3177 3177 3176 3176 3175 3174 3173 3172
3141 3142 3144 3145 3146 3148 3150 3152 3153 3154 3156 3158 3162 3164 3166 3168 3169 3171 3172 3173 3175 3175 3176 3177 3177 3178 3178 3179 3179 3179 3179 3179 3179 3179 3179 3178 3178 3177 3177 3176 3175 3174 3173
3138 3139 3142 3143 3145 3147 3149 3151 3152 3154 3155 3158 3161 3163 3165 3168 3169 3171 3172 3174 3175 3176 3177 3178 3179 3179 3180 3180 3180 3181 3180 3180 3180 3180 3179 3179 3178 3178 3177 3176 3175 3175 3173
3134 3137 3139 3141 3143 3145 3147 3149 3151 3153 3155 3158 3161 3162 3164 3167 3169 3171 3172 3174 3175 3177 3178 3179 3180 3180 3180 3181 3181 3181 3181 3181 3180 3180 3180 3179 3179 3178 3178 3177 3176 3175 3174
3132 3134 3136 3138 3140 3143 3146 3147 3149 3152 3154 3157 3160 3162 3164 3166 3168 3170 3172 3174 3175 3177 3178 3179 3180 3181 3181 3182 3181 3181 3181 3181 3180 3180 3179 3179 3178 3177 3177 3176 3176 3174 3173
3130 3132 3134 3136 3136 3140 3144 3146 3148 3150 3153 3156 3158 3160 3163 3166 3169 3170 3172 3174 3176 3177 3179 3180 3181 3182 3182 3182 3182 3182 3181 3181 3181 3180 3179 3179 3178 3177 3177 3176 3176 3174 3173
3128 3132 3133 3134 3133 3136 3140 3144 3146 3149 3152 3154 3157 3159 3162 3165 3168 3171 3173 3175 3177 3178 3180 3181 3182 3182 3183 3183 3182 3182 3181 3181 3180 3180 3179 3178 3178 3177 3176 3175 3174 3173 3172
3125 3127 3130 3131 3132 3133 3137 3141 3144 3147 3150 3153 3155 3159 3161 3164 3167 3170 3173 3175 3177 3179 3180 3181 3182 3182 3182 3182 3182 3181 3181 3180 3180 3179 3179 3178 3177 3176 3176 3175 3173 3172 3171
3114 3121 3126 3128 3130 3131 3134 3139 3142 3146 3149 3151 3154 3157 3160 3163 3166 3169 3172 3174 3176 3178 3179 3180 3181 3181 3181 3181 3180 3180 3180 3179 3179 3178 3177 3177 3176 3175 3175 3174 3172 3171 3169
3101 3114 3121 3124 3127 3130 3132 3136 3140 3144 3147 3150 3153 3156 3159 3162 3165 3169 3171 3173 3175 3176 3177 3178 3179 3179 3179 3179 3179 3178 3178 3178 3177 3176 3176 3176 3175 3174 3173 3172 3170 3168 3167
3096 3108 3114 3120 3123 3126 3130 3135 3139 3142 3147 3150 3153 3156 3158 3161 3164 3167 3170 3172 3173 3175 3176 3177 3177 3177 3177 3177 3177 3176 3176 3176 3176 3175 3174 3174 3173 3172 3171 3170 3169 3167 3165
3092 3101 3111 3117 3120 3124 3128 3133 3137 3141 3146 3150 3153 3155 3158 3160 3163 3166 3168 3170 3171 3172 3173 3174 3175 3175 3175 3175 3175 3175 3174 3174 3173 3173 3172 3171 3170 3170 3169 3168 3166 3165 3163
3100 3095 3105 3114 3117 3122 3128 3134 3138 3142 3145 3149 3151 3155 3157 3159 3162 3164 3166 3168 3169 3170 3171 3172 3172 3172 3173 3173 3173 3173 3172 3172 3171 3170 3169 3169 3168 3168 3168 3166 3164 3162 3161
3091 3094 3093 3111 3116 3121 3125 3129 3135 3143 3147 3150 3152 3154 3155 3158 3160 3163 3165 3166 3167 3168 3169 3169 3169 3170 3170 3170 3170 3169 3169 3169 3169 3168 3167 3166 3165 3164 3163 3162 3161 3159 3157
3088 3091 3093 3108 3112 3118 3123 3127 3134 3140 3145 3149 3151 3152 3152 3155 3158 3160 3162 3163 3163 3165 3166 3166 3166 3166 3166 3167 3166 3166 3166 3166 3165 3165 3163 3162 3161 3160 3159 3157 3156 3155 3152
3085 3087 3092 3103 3109 3114 3118 3125 3131 3137 3141 3143 3148 3150 3150 3150 3154 3156 3158 3159 3159 3160 3161 3162 3163 3163 3163 3163 3162 3162 3162 3162 3162 3161 3160 3158 3157 3157 3155 3153 3152 3150 3148
3085 3088 3092 3098 3107 3114 3119 3125 3130 3133 3134 3138 3142 3145 3146 3148 3150 3151 3153 3154 3155 3156 3157 3157 3158 3158 3158 3159 3158 3158 3158 3158 3158 3157 3156 3155 3153 3152 3151 3149 3147 3146 3144
3079 3083 3089 3094 3104 3110 3117 3127 3126 3128 3130 3133 3137 3139 3141 3144 3147 3147 3147 3148 3149 3150 3150 3151 3152 3152 3152 3152 3153 3153 3153 3153 3153 3153 3152 3151 3149 3147 3146 3144 3142 3140 3138
3076 3082 3087 3093 3099 3112 3120 3121 3120 3121 3126 3130 3132 3133 3136 3138 3140 3141 3142 3143 3143 3142 3143 3143 3144 3146 3146 3146 3147 3148 3148 3149 3147 3148 3148 3146 3145 3142 3141 3139 3137 3135 3133
3073 3079 3085 3093 3096 3107 3112 3113 3113 3112 3118 3123 3127 3128 3131 3131 3133 3134 3137 3139 3138 3134 3134 3137 3137 3137 3139 3140 3140 3141 3143 3143 3142 3143 3144 3142 3139 3136 3136 3134 3132 3129 3127
3072 3078 3082 3087 3091 3099 3104 3107 3109 3107 3111 3115 3118 3120 3123 3125 3126 3129 3132 3133 3130 3130 3127 3125 3130 3129 3129 3131 3132 3133 3134 3134 3134 3136 3137 3136 3133 3131 3130 3128 3126 3124 3121
3069 3072 3075 3081 3091 3092 3097 3101 3104 3107 3111 3113 3114 3115 3117 3118 3121 3123 3125 3126 3126 3123 3122 3124 3124 3127 3128 3129 3128 3127 3127 3130 3131 3132 3130 3132 3130 3126 3125 3123 3120 3117 3115
3070 3075 3081 3083 3088 3092 3096 3095 3100 3104 3106 3106 3107 3107 3109 3107 3113 3116 3118 3120 3120 3116 3117 3120 3121 3120 3122 3122 3123 3122 3123 3123 3125 3125 3123 3123 3122 3121 3119 3117 3113 3110 3108